Time,TemperatureF,DewpointF,PressureIn,WindDirection,WindDirectionDegrees,WindSpeedMPH,WindSpeedGustMPH,Humidity,HourlyPrecipIn,Conditions,Clouds,dailyrainin,SoftwareType,DateUTC
2012-11-20 00:00:00,46.6,46.3,29.64,SSW,202,0.0,0.0,99,0.00,,,0.00,WUHU21623XXSP,2012-11-20 08:00:00,
2012-11-20 00:05:00,46.6,46.3,29.65,ESE,112,0.0,0.0,99,0.00,,,0.00,WUHU21623XXSP,2012-11-20 08:05:00,
2012-11-20 00:10:00,46.6,46.3,29.65,SE,135,0.0,0.0,99,0.00,,,0.00,WUHU21623XXSP,2012-11-20 08:10:00,
2012-11-20 00:15:00,46.6,46.3,29.65,SSE,157,0.0,0.0,99,0.00,,,0.00,WUHU21623XXSP,2012-11-20 08:15:00,
2012-11-20 00:20:00,46.6,46.3,29.66,ESE,112,0.0,0.0,99,0.00,,,0.00,WUHU21623XXSP,2012-11-20 08:20:00,
2012-11-20 00:25:00,46.6,46.3,29.66,NE,45,0.0,0.0,99,0.00,,,0.00,WUHU21623XXSP,2012-11-20 08:25:00,
2012-11-20 00:30:00,46.6,46.3,29.65,SE,135,0.0,0.0,99,0.00,,,0.00,WUHU21623XXSP,2012-11-20 08:30:00,
2012-11-20 00:35:00,46.6,46.3,29.65,SE,135,0.0,0.0,99,0.00,,,0.00,WUHU21623XXSP,2012-11-20 08:35:00,
2012-11-20 00:40:00,46.6,46.3,29.65,South,180,0.0,0.0,99,0.00,,,0.00,WUHU21623XXSP,2012-11-20 08:40:00,
2012-11-20 00:45:00,46.6,46.3,29.65,North,0,0.0,0.0,99,0.00,,,0.00,WUHU21623XXSP,2012-11-20 08:45:00,
2012-11-20 00:50:00,46.6,46.3,29.65,North,0,0.0,0.0,99,0.00,,,0.00,WUHU21623XXSP,2012-11-20 08:50:00,
2012-11-20 00:55:00,46.2,46.0,29.65,ENE,67,0.0,0.0,99,0.00,,,0.00,WUHU21623XXSP,2012-11-20 08:55:00,
2012-11-20 01:00:00,46.2,46.0,29.65,ENE,67,0.0,0.0,99,0.00,,,0.00,WUHU21623XXSP,2012-11-20 09:00:00,
2012-11-20 01:05:00,46.2,46.0,29.65,ENE,67,0.0,0.0,99,0.00,,,0.00,WUHU21623XXSP,2012-11-20 09:05:00,
2012-11-20 01:10:00,46.0,45.8,29.65,East,90,0.0,0.0,99,0.00,,,0.00,WUHU21623XXSP,2012-11-20 09:10:00,
2012-11-20 01:15:00,46.0,45.8,29.65,SE,135,0.0,0.0,99,0.00,,,0.00,WUHU21623XXSP,2012-11-20 09:15:00,
2012-11-20 01:20:00,46.0,45.8,29.65,NE,45,0.0,0.0,99,0.00,,,0.00,WUHU21623XXSP,2012-11-20 09:20:00,
2012-11-20 01:25:00,46.0,45.8,29.65,NE,45,0.0,0.0,99,0.00,,,0.00,WUHU21623XXSP,2012-11-20 09:25:00,
2012-11-20 01:30:00,46.0,45.8,29.65,NE,45,0.0,0.0,99,0.00,,,0.00,WUHU21623XXSP,2012-11-20 09:30:00,
2012-11-20 01:36:00,46.0,45.8,29.65,NE,45,0.0,0.0,99,0.00,,,0.00,WUHU21623XXSP,2012-11-20 09:36:00,
2012-11-20 01:40:00,46.0,45.8,29.65,NE,45,0.0,0.0,99,0.00,,,0.00,WUHU21623XXSP,2012-11-20 09:40:00,
2012-11-20 01:45:00,45.7,45.4,29.65,NE,45,0.0,0.0,99,0.00,,,0.00,WUHU21623XXSP,2012-11-20 09:45:00,
2012-11-20 01:50:00,45.7,45.4,29.66,ENE,67,0.0,0.0,99,0.00,,,0.00,WUHU21623XXSP,2012-11-20 09:50:00,
2012-11-20 01:55:00,45.7,45.4,29.65,ENE,67,0.0,0.0,99,0.00,,,0.00,WUHU21623XXSP,2012-11-20 09:55:00,
2012-11-20 02:00:00,45.7,45.4,29.66,ENE,67,0.0,0.0,99,0.00,,,0.00,WUHU21623XXSP,2012-11-20 10:00:00,
2012-11-20 02:05:00,45.7,45.4,29.66,ENE,67,0.0,0.0,99,0.00,,,0.00,WUHU21623XXSP,2012-11-20 10:05:00,
2012-11-20 02:10:00,45.5,45.2,29.66,ENE,67,0.0,0.0,99,0.00,,,0.00,WUHU21623XXSP,2012-11-20 10:10:00,
2012-11-20 02:15:00,45.7,45.4,29.66,ENE,67,0.0,0.0,99,0.00,,,0.00,WUHU21623XXSP,2012-11-20 10:15:00,
2012-11-20 02:20:00,45.7,45.4,29.66,ENE,67,0.0,0.0,99,0.00,,,0.00,WUHU21623XXSP,2012-11-20 10:20:00,
2012-11-20 02:25:00,45.7,45.4,29.66,NE,45,0.0,0.0,99,0.00,,,0.00,WUHU21623XXSP,2012-11-20 10:25:00,
2012-11-20 02:30:00,45.5,45.2,29.66,NE,45,0.0,0.0,99,0.00,,,0.00,WUHU21623XXSP,2012-11-20 10:30:00,
2012-11-20 02:35:00,45.5,45.2,29.66,NE,45,0.0,0.0,99,0.00,,,0.00,WUHU21623XXSP,2012-11-20 10:35:00,
2012-11-20 02:40:00,45.5,45.2,29.66,NE,45,0.0,0.0,99,0.00,,,0.00,WUHU21623XXSP,2012-11-20 10:40:00,
2012-11-20 02:45:00,45.5,45.2,29.65,NE,45,0.0,0.0,99,0.00,,,0.00,WUHU21623XXSP,2012-11-20 10:45:00,
2012-11-20 02:50:00,45.7,45.2,29.65,NE,45,0.0,0.0,99,0.00,,,0.00,WUHU21623XXSP,2012-11-20 10:50:00,
2012-11-20 02:55:00,45.7,45.4,29.65,NE,45,0.0,0.0,99,0.00,,,0.00,WUHU21623XXSP,2012-11-20 10:55:00,
2012-11-20 03:00:00,45.5,45.4,29.65,NE,45,0.0,0.0,99,0.00,,,0.00,WUHU21623XXSP,2012-11-20 11:00:00,
2012-11-20 03:06:00,45.5,45.2,29.65,NE,45,0.0,0.0,99,0.00,,,0.00,WUHU21623XXSP,2012-11-20 11:06:00,
2012-11-20 03:11:00,45.7,45.2,29.65,NE,45,0.0,0.0,99,0.00,,,0.00,WUHU21623XXSP,2012-11-20 11:11:00,
2012-11-20 03:16:00,45.5,45.4,29.64,NE,45,0.0,0.0,99,0.00,,,0.00,WUHU21623XXSP,2012-11-20 11:16:00,
2012-11-20 03:21:00,45.5,45.2,29.64,ENE,67,0.0,0.0,99,0.00,,,0.00,WUHU21623XXSP,2012-11-20 11:21:00,
2012-11-20 03:26:00,45.7,45.4,29.64,NE,45,0.0,0.0,99,0.00,,,0.00,WUHU21623XXSP,2012-11-20 11:26:00,
2012-11-20 03:31:00,45.7,45.4,29.63,NE,45,0.0,0.0,99,0.00,,,0.00,WUHU21623XXSP,2012-11-20 11:31:00,
2012-11-20 03:36:00,45.7,45.4,29.63,NE,45,0.0,0.0,99,0.00,,,0.00,WUHU21623XXSP,2012-11-20 11:36:00,
2012-11-20 03:41:00,45.7,45.4,29.63,NE,45,0.0,0.0,99,0.00,,,0.00,WUHU21623XXSP,2012-11-20 11:41:00,
2012-11-20 03:46:00,45.7,45.4,29.63,NE,45,0.0,0.0,99,0.00,,,0.00,WUHU21623XXSP,2012-11-20 11:46:00,
2012-11-20 03:51:00,45.7,45.4,29.63,NE,45,0.0,0.0,99,0.00,,,0.00,WUHU21623XXSP,2012-11-20 11:51:00,
2012-11-20 03:56:00,45.7,45.4,29.63,NE,45,0.0,0.0,99,0.00,,,0.00,WUHU21623XXSP,2012-11-20 11:56:00,
2012-11-20 04:01:00,45.7,45.4,29.63,NE,45,0.0,0.0,99,0.00,,,0.00,WUHU21623XXSP,2012-11-20 12:01:00,
2012-11-20 04:06:00,45.7,45.4,29.63,NE,45,0.0,0.0,99,0.00,,,0.00,WUHU21623XXSP,2012-11-20 12:06:00,
2012-11-20 04:11:00,45.7,45.4,29.63,NE,45,0.0,0.0,99,0.00,,,0.00,WUHU21623XXSP,2012-11-20 12:11:00,
2012-11-20 04:16:00,45.9,45.4,29.63,NE,45,0.0,0.0,99,0.00,,,0.00,WUHU21623XXSP,2012-11-20 12:16:00,
2012-11-20 04:21:00,46.0,45.8,29.63,NE,45,0.0,0.0,99,0.00,,,0.00,WUHU21623XXSP,2012-11-20 12:21:00,
2012-11-20 04:26:00,45.9,45.8,29.62,NE,45,0.0,0.0,99,0.00,,,0.00,WUHU21623XXSP,2012-11-20 12:26:00,
2012-11-20 04:31:00,46.0,45.8,29.63,NE,45,0.0,0.0,99,0.00,,,0.00,WUHU21623XXSP,2012-11-20 12:31:00,
2012-11-20 04:36:00,46.0,45.8,29.63,NE,45,0.0,0.0,99,0.00,,,0.00,WUHU21623XXSP,2012-11-20 12:36:00,
2012-11-20 04:41:00,46.0,45.8,29.63,NE,45,0.0,0.0,99,0.00,,,0.00,WUHU21623XXSP,2012-11-20 12:41:00,
2012-11-20 04:46:00,46.0,45.8,29.62,NE,45,0.0,0.0,99,0.00,,,0.00,WUHU21623XXSP,2012-11-20 12:46:00,
2012-11-20 04:51:00,46.0,45.6,29.62,NE,45,0.0,0.0,99,0.00,,,0.00,WUHU21623XXSP,2012-11-20 12:51:00,
2012-11-20 04:56:00,45.9,45.8,29.63,NE,45,0.0,0.0,99,0.00,,,0.00,WUHU21623XXSP,2012-11-20 12:56:00,
2012-11-20 05:01:00,45.7,45.4,29.62,NE,45,0.0,0.0,99,0.00,,,0.00,WUHU21623XXSP,2012-11-20 13:01:00,
2012-11-20 05:06:00,45.7,45.4,29.62,NE,45,0.0,0.0,99,0.00,,,0.00,WUHU21623XXSP,2012-11-20 13:06:00,
2012-11-20 05:11:00,45.7,45.4,29.61,NE,45,0.0,0.0,99,0.00,,,0.00,WUHU21623XXSP,2012-11-20 13:11:00,
2012-11-20 05:16:00,45.7,45.4,29.61,NE,45,0.0,0.0,99,0.00,,,0.00,WUHU21623XXSP,2012-11-20 13:16:00,
2012-11-20 05:21:00,45.7,45.4,29.61,NE,45,0.0,0.0,99,0.00,,,0.00,WUHU21623XXSP,2012-11-20 13:21:00,
2012-11-20 05:26:00,45.7,45.4,29.61,NE,45,0.0,0.0,99,0.00,,,0.00,WUHU21623XXSP,2012-11-20 13:26:00,
2012-11-20 05:31:00,45.7,45.4,29.61,NE,45,0.0,0.0,99,0.00,,,0.00,WUHU21623XXSP,2012-11-20 13:31:00,
2012-11-20 05:36:00,45.7,45.4,29.61,NE,45,0.0,0.0,99,0.00,,,0.00,WUHU21623XXSP,2012-11-20 13:36:00,
2012-11-20 05:41:00,45.5,45.2,29.62,NNW,337,0.0,0.0,99,0.00,,,0.00,WUHU21623XXSP,2012-11-20 13:41:00,
2012-11-20 05:46:00,45.5,45.2,29.62,NE,45,0.0,0.0,99,0.00,,,0.00,WUHU21623XXSP,2012-11-20 13:46:00,
2012-11-20 05:51:00,45.5,45.2,29.62,NE,45,0.0,0.0,99,0.00,,,0.00,WUHU21623XXSP,2012-11-20 13:51:00,
2012-11-20 05:56:00,45.5,45.2,29.62,NE,45,0.0,0.0,99,0.00,,,0.00,WUHU21623XXSP,2012-11-20 13:56:00,
2012-11-20 06:01:00,45.5,45.2,29.62,NE,45,0.0,0.0,99,0.00,,,0.00,WUHU21623XXSP,2012-11-20 14:01:00,
2012-11-20 06:06:00,45.5,45.2,29.62,ENE,67,0.0,0.0,99,0.00,,,0.00,WUHU21623XXSP,2012-11-20 14:06:00,
2012-11-20 06:11:00,45.5,45.2,29.61,ENE,67,0.0,0.0,99,0.00,,,0.00,WUHU21623XXSP,2012-11-20 14:11:00,
2012-11-20 06:16:00,45.5,45.2,29.61,ENE,67,0.0,0.0,99,0.00,,,0.00,WUHU21623XXSP,2012-11-20 14:16:00,
2012-11-20 06:21:00,45.3,45.0,29.61,ENE,67,0.0,0.0,99,0.00,,,0.00,WUHU21623XXSP,2012-11-20 14:21:00,
2012-11-20 06:26:00,45.3,45.0,29.61,ENE,67,0.0,0.0,99,0.00,,,0.00,WUHU21623XXSP,2012-11-20 14:26:00,
2012-11-20 06:31:00,45.3,45.0,29.61,NE,45,0.0,0.0,99,0.00,,,0.00,WUHU21623XXSP,2012-11-20 14:31:00,
2012-11-20 06:36:00,45.3,45.0,29.60,NE,45,0.0,0.0,99,0.00,,,0.00,WUHU21623XXSP,2012-11-20 14:36:00,
2012-11-20 06:41:00,45.1,44.9,29.60,NE,45,0.0,0.0,99,0.00,,,0.00,WUHU21623XXSP,2012-11-20 14:41:00,
2012-11-20 06:46:00,45.1,44.9,29.60,NE,45,0.0,0.0,99,0.00,,,0.00,WUHU21623XXSP,2012-11-20 14:46:00,
2012-11-20 06:51:00,45.1,44.9,29.59,NE,45,0.0,0.0,99,0.00,,,0.00,WUHU21623XXSP,2012-11-20 14:51:00,
2012-11-20 06:56:00,45.1,44.9,29.60,NE,45,0.0,0.0,99,0.00,,,0.00,WUHU21623XXSP,2012-11-20 14:56:00,
2012-11-20 07:01:00,45.1,44.9,29.59,NE,45,0.0,0.0,99,0.00,,,0.00,WUHU21623XXSP,2012-11-20 15:01:00,
2012-11-20 07:06:00,45.0,44.7,29.59,NE,45,0.0,0.0,99,0.00,,,0.00,WUHU21623XXSP,2012-11-20 15:06:00,
2012-11-20 07:11:00,45.0,44.7,29.59,NE,45,0.0,0.0,99,0.00,,,0.00,WUHU21623XXSP,2012-11-20 15:11:00,
2012-11-20 07:16:00,45.0,44.7,29.59,NE,45,0.0,0.0,99,0.00,,,0.00,WUHU21623XXSP,2012-11-20 15:16:00,
2012-11-20 07:21:00,44.8,44.5,29.59,NE,45,0.0,0.0,99,0.00,,,0.00,WUHU21623XXSP,2012-11-20 15:21:00,
2012-11-20 07:26:00,44.8,44.5,29.59,NE,45,0.0,0.0,99,0.00,,,0.00,WUHU21623XXSP,2012-11-20 15:26:00,
2012-11-20 07:31:00,44.8,44.5,29.59,NE,45,0.0,0.0,99,0.00,,,0.00,WUHU21623XXSP,2012-11-20 15:31:00,
2012-11-20 07:36:00,44.8,44.5,29.58,NE,45,0.0,0.0,99,0.00,,,0.00,WUHU21623XXSP,2012-11-20 15:36:00,
2012-11-20 07:41:00,44.8,44.5,29.58,NE,45,0.0,0.0,99,0.00,,,0.00,WUHU21623XXSP,2012-11-20 15:41:00,
2012-11-20 07:46:00,44.8,44.5,29.58,NE,45,0.0,0.0,99,0.00,,,0.00,WUHU21623XXSP,2012-11-20 15:46:00,
2012-11-20 07:51:00,44.8,44.5,29.57,NE,45,0.0,0.0,99,0.00,,,0.00,WUHU21623XXSP,2012-11-20 15:51:00,
2012-11-20 07:56:00,44.8,44.5,29.58,NE,45,0.0,0.0,99,0.00,,,0.00,WUHU21623XXSP,2012-11-20 15:56:00,
2012-11-20 08:01:00,44.8,44.5,29.57,NE,45,0.0,0.0,99,0.00,,,0.00,WUHU21623XXSP,2012-11-20 16:01:00,
2012-11-20 08:06:00,44.6,44.5,29.57,NE,45,0.0,0.0,99,0.00,,,0.00,WUHU21623XXSP,2012-11-20 16:06:00,
2012-11-20 08:11:00,44.6,44.3,29.57,NE,45,0.0,0.0,99,0.00,,,0.00,WUHU21623XXSP,2012-11-20 16:11:00,
2012-11-20 08:16:00,44.4,44.1,29.56,NE,45,0.0,0.0,99,0.00,,,0.00,WUHU21623XXSP,2012-11-20 16:16:00,
2012-11-20 08:21:00,44.4,44.1,29.56,NE,45,0.0,0.0,99,0.00,,,0.00,WUHU21623XXSP,2012-11-20 16:21:00,
2012-11-20 08:26:00,44.4,44.1,29.55,NE,45,0.0,0.0,99,0.00,,,0.00,WUHU21623XXSP,2012-11-20 16:26:00,
2012-11-20 08:31:00,44.4,44.1,29.55,NE,45,0.0,0.0,99,0.00,,,0.00,WUHU21623XXSP,2012-11-20 16:31:00,
2012-11-20 08:36:00,44.4,44.1,29.54,NE,45,0.0,0.0,99,0.00,,,0.00,WUHU21623XXSP,2012-11-20 16:36:00,
2012-11-20 08:41:00,44.4,44.1,29.54,NE,45,0.0,0.0,99,0.00,,,0.00,WUHU21623XXSP,2012-11-20 16:41:00,
2012-11-20 08:46:00,44.4,44.1,29.53,NE,45,0.0,0.0,99,0.00,,,0.00,WUHU21623XXSP,2012-11-20 16:46:00,
2012-11-20 08:51:00,44.4,44.1,29.53,NE,45,0.0,0.0,99,0.00,,,0.00,WUHU21623XXSP,2012-11-20 16:51:00,
2012-11-20 08:56:00,44.4,44.1,29.53,NE,45,0.0,0.0,99,0.00,,,0.00,WUHU21623XXSP,2012-11-20 16:56:00,
2012-11-20 09:01:00,44.4,44.1,29.51,NNE,22,0.0,0.0,99,0.00,,,0.00,WUHU21623XXSP,2012-11-20 17:01:00,
2012-11-20 09:06:00,44.4,44.1,29.52,NNE,22,0.0,0.0,99,0.00,,,0.00,WUHU21623XXSP,2012-11-20 17:06:00,
2012-11-20 09:11:00,44.4,44.1,29.51,NNE,22,0.0,0.0,99,0.00,,,0.00,WUHU21623XXSP,2012-11-20 17:11:00,
2012-11-20 09:16:00,44.4,44.1,29.52,ENE,67,0.0,0.0,99,0.00,,,0.00,WUHU21623XXSP,2012-11-20 17:16:00,
2012-11-20 09:21:00,44.4,44.1,29.52,ENE,67,0.0,0.0,99,0.00,,,0.00,WUHU21623XXSP,2012-11-20 17:21:00,
2012-11-20 09:26:00,44.8,44.3,29.52,ENE,67,0.0,0.0,99,0.00,,,0.00,WUHU21623XXSP,2012-11-20 17:26:00,
2012-11-20 09:31:00,45.0,44.7,29.52,ENE,67,0.0,0.0,99,0.00,,,0.00,WUHU21623XXSP,2012-11-20 17:31:00,
2012-11-20 09:36:00,45.1,44.7,29.52,ENE,67,0.0,0.0,99,0.00,,,0.00,WUHU21623XXSP,2012-11-20 17:36:00,
2012-11-20 09:41:00,45.1,44.9,29.51,ENE,67,0.0,0.0,99,0.00,,,0.00,WUHU21623XXSP,2012-11-20 17:41:00,
2012-11-20 09:46:00,45.7,45.4,29.50,ENE,67,0.0,0.0,99,0.00,,,0.00,WUHU21623XXSP,2012-11-20 17:46:00,
2012-11-20 09:51:00,45.7,45.4,29.50,ENE,67,0.0,0.0,99,0.00,,,0.00,WUHU21623XXSP,2012-11-20 17:51:00,
2012-11-20 09:56:00,45.7,45.4,29.50,ENE,67,0.0,0.0,99,0.00,,,0.00,WUHU21623XXSP,2012-11-20 17:56:00,
2012-11-20 10:01:00,46.0,45.8,29.49,NNE,22,0.0,0.0,99,0.00,,,0.00,WUHU21623XXSP,2012-11-20 18:01:00,
2012-11-20 10:06:00,46.2,46.0,29.49,NE,45,0.0,0.0,99,0.00,,,0.00,WUHU21623XXSP,2012-11-20 18:06:00,
2012-11-20 10:11:00,46.2,46.0,29.49,NE,45,0.0,0.0,99,0.00,,,0.00,WUHU21623XXSP,2012-11-20 18:11:00,
2012-11-20 10:16:00,46.8,46.5,29.49,NE,45,0.0,0.0,99,0.00,,,0.00,WUHU21623XXSP,2012-11-20 18:16:00,
2012-11-20 10:21:00,46.9,46.7,29.48,NE,45,0.0,0.0,99,0.00,,,0.00,WUHU21623XXSP,2012-11-20 18:21:00,
2012-11-20 10:26:00,46.9,46.7,29.48,NE,45,0.0,0.0,99,0.00,,,0.00,WUHU21623XXSP,2012-11-20 18:26:00,
2012-11-20 10:31:00,47.1,46.9,29.48,NE,45,0.0,0.0,99,0.00,,,0.00,WUHU21623XXSP,2012-11-20 18:31:00,
2012-11-20 10:36:00,47.1,46.9,29.49,NE,45,0.0,0.0,99,0.00,,,0.00,WUHU21623XXSP,2012-11-20 18:36:00,
2012-11-20 10:41:00,47.1,46.9,29.49,NE,45,0.0,0.0,99,0.00,,,0.00,WUHU21623XXSP,2012-11-20 18:41:00,
2012-11-20 10:46:00,47.3,47.0,29.48,NE,45,0.0,0.0,99,0.00,,,0.00,WUHU21623XXSP,2012-11-20 18:46:00,
2012-11-20 10:51:00,47.1,46.9,29.48,NE,45,0.0,0.0,99,0.00,,,0.00,WUHU21623XXSP,2012-11-20 18:51:00,
2012-11-20 10:56:00,47.3,47.0,29.48,NE,45,0.0,0.0,99,0.00,,,0.00,WUHU21623XXSP,2012-11-20 18:56:00,
2012-11-20 11:01:00,47.3,47.0,29.48,NE,45,0.0,0.0,99,0.00,,,0.00,WUHU21623XXSP,2012-11-20 19:01:00,
2012-11-20 11:06:00,47.3,47.0,29.49,ESE,112,0.0,0.0,99,0.00,,,0.00,WUHU21623XXSP,2012-11-20 19:06:00,
2012-11-20 11:11:00,47.3,47.0,29.49,NE,45,0.0,0.0,99,0.00,,,0.00,WUHU21623XXSP,2012-11-20 19:11:00,
2012-11-20 11:16:00,47.5,47.2,29.49,SSE,157,0.0,0.0,99,0.00,,,0.00,WUHU21623XXSP,2012-11-20 19:16:00,
2012-11-20 11:21:00,47.3,47.0,29.49,SSE,157,0.0,0.0,99,0.00,,,0.00,WUHU21623XXSP,2012-11-20 19:21:00,
2012-11-20 11:26:00,47.3,47.0,29.50,SSE,157,0.0,0.0,99,0.00,,,0.00,WUHU21623XXSP,2012-11-20 19:26:00,
2012-11-20 11:31:00,47.1,46.9,29.50,SSE,157,0.0,0.0,99,0.00,,,0.00,WUHU21623XXSP,2012-11-20 19:31:00,
2012-11-20 11:36:00,47.1,46.9,29.51,SSE,157,0.0,0.0,99,0.00,,,0.00,WUHU21623XXSP,2012-11-20 19:36:00,
2012-11-20 11:41:00,46.9,46.9,29.51,SSE,157,0.0,0.0,99,0.00,,,0.00,WUHU21623XXSP,2012-11-20 19:41:00,
2012-11-20 11:46:00,46.8,46.5,29.52,NW,315,0.0,0.0,99,0.00,,,0.00,WUHU21623XXSP,2012-11-20 19:46:00,
2012-11-20 11:51:00,46.8,46.5,29.52,NNW,337,0.0,0.0,99,0.00,,,0.00,WUHU21623XXSP,2012-11-20 19:51:00,
2012-11-20 11:56:00,46.6,46.0,29.52,ENE,67,0.0,0.0,98,0.00,,,0.00,WUHU21623XXSP,2012-11-20 19:56:00,
2012-11-20 12:01:00,46.6,46.0,29.52,SE,135,0.0,0.0,98,0.00,,,0.00,WUHU21623XXSP,2012-11-20 20:01:00,
2012-11-20 12:06:00,46.6,46.0,29.52,East,90,0.0,0.0,98,0.00,,,0.00,WUHU21623XXSP,2012-11-20 20:06:00,
2012-11-20 12:11:00,46.6,46.0,29.51,ESE,112,0.0,0.0,98,0.00,,,0.00,WUHU21623XXSP,2012-11-20 20:11:00,
2012-11-20 12:16:00,46.6,46.0,29.50,SE,135,0.0,0.0,98,0.00,,,0.00,WUHU21623XXSP,2012-11-20 20:16:00,
2012-11-20 12:21:00,46.6,46.0,29.50,SE,135,0.0,0.0,98,0.00,,,0.00,WUHU21623XXSP,2012-11-20 20:21:00,
2012-11-20 12:26:00,46.6,46.0,29.51,SE,135,0.0,0.0,98,0.00,,,0.00,WUHU21623XXSP,2012-11-20 20:26:00,
2012-11-20 12:31:00,46.6,46.0,29.50,SE,135,0.0,0.0,98,0.00,,,0.00,WUHU21623XXSP,2012-11-20 20:31:00,
2012-11-20 12:36:00,46.6,46.0,29.50,SE,135,0.0,0.0,98,0.00,,,0.00,WUHU21623XXSP,2012-11-20 20:36:00,
2012-11-20 12:41:00,46.6,46.0,29.50,SE,135,0.0,0.0,98,0.00,,,0.00,WUHU21623XXSP,2012-11-20 20:41:00,
2012-11-20 12:46:00,46.8,46.5,29.50,ESE,112,0.0,0.0,99,0.00,,,0.00,WUHU21623XXSP,2012-11-20 20:46:00,
2012-11-20 12:51:00,46.8,46.5,29.50,South,180,0.0,0.0,99,0.00,,,0.00,WUHU21623XXSP,2012-11-20 20:51:00,
2012-11-20 12:56:00,46.8,46.5,29.50,SE,135,0.0,0.0,99,0.00,,,0.00,WUHU21623XXSP,2012-11-20 20:56:00,
2012-11-20 13:01:00,46.9,46.7,29.50,SE,135,0.0,0.0,99,0.00,,,0.00,WUHU21623XXSP,2012-11-20 21:01:00,
2012-11-20 13:06:00,47.1,46.9,29.51,SE,135,0.0,0.0,99,0.00,,,0.00,WUHU21623XXSP,2012-11-20 21:06:00,
2012-11-20 13:11:00,47.1,46.9,29.51,SE,135,0.0,0.0,99,0.00,,,0.00,WUHU21623XXSP,2012-11-20 21:11:00,
2012-11-20 13:16:00,47.3,47.0,29.51,SE,135,0.0,0.0,99,0.00,,,0.00,WUHU21623XXSP,2012-11-20 21:16:00,
2012-11-20 13:21:00,47.5,47.2,29.51,SE,135,0.0,0.0,99,0.00,,,0.00,WUHU21623XXSP,2012-11-20 21:21:00,
2012-11-20 13:26:00,47.5,47.2,29.52,SE,135,0.0,0.0,99,0.00,,,0.00,WUHU21623XXSP,2012-11-20 21:26:00,
2012-11-20 13:31:00,47.7,47.4,29.51,SE,135,0.0,0.0,99,0.00,,,0.00,WUHU21623XXSP,2012-11-20 21:31:00,
2012-11-20 13:36:00,47.7,47.1,29.52,ESE,112,0.0,0.0,98,0.00,,,0.00,WUHU21623XXSP,2012-11-20 21:36:00,
2012-11-20 13:41:00,47.7,47.1,29.52,ESE,112,0.0,0.0,98,0.00,,,0.00,WUHU21623XXSP,2012-11-20 21:41:00,
2012-11-20 13:46:00,47.5,46.9,29.52,ESE,112,0.0,0.0,98,0.00,,,0.00,WUHU21623XXSP,2012-11-20 21:46:00,
2012-11-20 13:51:00,47.5,46.9,29.53,SSE,157,0.0,0.0,98,0.00,,,0.00,WUHU21623XXSP,2012-11-20 21:51:00,
2012-11-20 13:56:00,47.5,46.9,29.54,West,270,0.0,0.0,98,0.00,,,0.00,WUHU21623XXSP,2012-11-20 21:56:00,
2012-11-20 14:01:00,47.5,46.9,29.53,SE,135,0.0,0.0,98,0.00,,,0.00,WUHU21623XXSP,2012-11-20 22:01:00,
2012-11-20 14:06:00,47.5,46.9,29.53,NE,45,0.0,0.0,98,0.00,,,0.00,WUHU21623XXSP,2012-11-20 22:06:00,
2012-11-20 14:11:00,47.3,46.8,29.54,WSW,247,0.0,0.0,98,0.00,,,0.00,WUHU21623XXSP,2012-11-20 22:11:00,
2012-11-20 14:15:00,47.3,46.8,29.55,WSW,247,0.0,0.0,98,0.00,,,0.00,WUHU21623XXSP,2012-11-20 22:15:00,
2012-11-20 14:20:00,47.3,46.8,29.57,SW,225,0.0,0.0,98,0.00,,,0.00,WUHU21623XXSP,2012-11-20 22:20:00,
2012-11-20 14:26:00,47.1,46.6,29.57,SW,225,0.0,0.0,98,0.00,,,0.00,WUHU21623XXSP,2012-11-20 22:26:00,
2012-11-20 14:30:00,47.1,46.6,29.56,SW,225,0.0,0.0,98,0.00,,,0.00,WUHU21623XXSP,2012-11-20 22:30:00,
2012-11-20 14:35:00,46.9,46.6,29.56,SW,225,0.0,0.0,98,0.00,,,0.00,WUHU21623XXSP,2012-11-20 22:35:00,
2012-11-20 14:40:00,46.9,46.4,29.56,SE,135,0.0,0.0,98,0.00,,,0.00,WUHU21623XXSP,2012-11-20 22:40:00,
2012-11-20 14:45:00,46.8,46.2,29.56,WSW,247,0.0,0.0,98,0.00,,,0.00,WUHU21623XXSP,2012-11-20 22:45:00,
2012-11-20 14:50:00,46.6,46.2,29.56,WSW,247,0.0,0.0,98,0.00,,,0.00,WUHU21623XXSP,2012-11-20 22:50:00,
2012-11-20 14:55:00,46.6,46.0,29.57,East,90,0.0,0.0,98,0.00,,,0.00,WUHU21623XXSP,2012-11-20 22:55:00,
2012-11-20 15:00:00,46.6,46.0,29.58,ESE,112,0.0,0.0,98,0.00,,,0.00,WUHU21623XXSP,2012-11-20 23:00:00,
2012-11-20 15:05:00,46.6,46.0,29.58,ESE,112,0.0,0.0,98,0.00,,,0.00,WUHU21623XXSP,2012-11-20 23:05:00,
2012-11-20 15:10:00,46.6,46.0,29.59,ENE,67,0.0,0.0,98,0.00,,,0.00,WUHU21623XXSP,2012-11-20 23:10:00,
2012-11-20 15:15:00,46.6,46.0,29.59,ESE,112,0.0,0.0,98,0.00,,,0.00,WUHU21623XXSP,2012-11-20 23:15:00,
2012-11-20 15:20:00,46.6,46.0,29.59,SE,135,0.0,0.0,98,0.00,,,0.00,WUHU21623XXSP,2012-11-20 23:20:00,
2012-11-20 15:25:00,46.2,45.7,29.60,SSE,157,0.0,0.0,98,0.00,,,0.00,WUHU21623XXSP,2012-11-20 23:25:00,
2012-11-20 15:30:00,46.2,45.4,29.61,ESE,112,0.0,0.0,97,0.00,,,0.00,WUHU21623XXSP,2012-11-20 23:30:00,
2012-11-20 15:35:00,46.2,45.4,29.61,ESE,112,0.0,0.0,97,0.00,,,0.00,WUHU21623XXSP,2012-11-20 23:35:00,
2012-11-20 15:40:00,46.0,45.2,29.61,SE,135,0.0,0.0,97,0.00,,,0.00,WUHU21623XXSP,2012-11-20 23:40:00,
2012-11-20 15:45:00,46.0,45.2,29.61,SE,135,0.0,0.0,97,0.00,,,0.00,WUHU21623XXSP,2012-11-20 23:45:00,
2012-11-20 15:50:00,46.0,45.2,29.62,SE,135,0.0,0.0,97,0.00,,,0.00,WUHU21623XXSP,2012-11-20 23:50:00,
2012-11-20 15:55:00,45.7,44.9,29.62,West,270,0.0,0.0,97,0.00,,,0.00,WUHU21623XXSP,2012-11-20 23:55:00,
2012-11-20 16:00:00,45.7,44.9,29.62,ENE,67,0.0,0.0,97,0.00,,,0.00,WUHU21623XXSP,2012-11-21 00:00:00,
2012-11-20 16:05:00,45.7,44.9,29.62,SE,135,0.0,0.0,97,0.00,,,0.00,WUHU21623XXSP,2012-11-21 00:05:00,
2012-11-20 16:10:00,45.3,44.5,29.62,ENE,67,0.0,0.0,97,0.00,,,0.00,WUHU21623XXSP,2012-11-21 00:10:00,
2012-11-20 16:15:00,45.3,44.5,29.63,ENE,67,0.0,0.0,97,0.00,,,0.00,WUHU21623XXSP,2012-11-21 00:15:00,
2012-11-20 16:20:00,45.1,44.3,29.63,ENE,67,0.0,0.0,97,0.00,,,0.00,WUHU21623XXSP,2012-11-21 00:20:00,
2012-11-20 16:25:00,45.1,44.3,29.62,ESE,112,0.0,0.0,97,0.00,,,0.00,WUHU21623XXSP,2012-11-21 00:25:00,
2012-11-20 16:30:00,45.1,44.3,29.63,ESE,112,0.0,0.0,97,0.00,,,0.00,WUHU21623XXSP,2012-11-21 00:30:00,
2012-11-20 16:35:00,45.0,44.1,29.63,SE,135,0.0,0.0,97,0.00,,,0.00,WUHU21623XXSP,2012-11-21 00:35:00,
2012-11-20 16:40:00,45.1,44.6,29.63,ESE,112,0.0,0.0,98,0.00,,,0.00,WUHU21623XXSP,2012-11-21 00:40:00,
2012-11-20 16:45:00,45.1,44.6,29.62,SE,135,0.0,0.0,98,0.00,,,0.00,WUHU21623XXSP,2012-11-21 00:45:00,
2012-11-20 16:50:00,45.1,44.6,29.62,SE,135,0.0,0.0,98,0.00,,,0.00,WUHU21623XXSP,2012-11-21 00:50:00,
2012-11-20 16:55:00,45.1,44.6,29.62,SE,135,0.0,0.0,98,0.00,,,0.00,WUHU21623XXSP,2012-11-21 00:55:00,
2012-11-20 17:00:00,45.1,44.6,29.62,SE,135,0.0,0.0,98,0.00,,,0.00,WUHU21623XXSP,2012-11-21 01:00:00,
2012-11-20 17:05:00,45.1,44.6,29.61,ESE,112,0.0,0.0,98,0.00,,,0.00,WUHU21623XXSP,2012-11-21 01:05:00,
2012-11-20 17:10:00,45.1,44.6,29.62,SE,135,0.0,0.0,98,0.00,,,0.00,WUHU21623XXSP,2012-11-21 01:10:00,
2012-11-20 17:15:00,45.0,44.4,29.62,SE,135,0.0,0.0,98,0.00,,,0.00,WUHU21623XXSP,2012-11-21 01:15:00,
2012-11-20 17:20:00,45.0,44.4,29.62,SE,135,0.0,0.0,98,0.00,,,0.00,WUHU21623XXSP,2012-11-21 01:20:00,
2012-11-20 17:25:00,44.8,44.2,29.62,SE,135,0.0,0.0,98,0.00,,,0.00,WUHU21623XXSP,2012-11-21 01:25:00,
2012-11-20 17:30:00,44.8,44.2,29.61,ESE,112,0.0,0.0,98,0.00,,,0.00,WUHU21623XXSP,2012-11-21 01:30:00,
2012-11-20 17:35:00,44.6,44.1,29.61,SE,135,0.0,0.0,98,0.00,,,0.00,WUHU21623XXSP,2012-11-21 01:35:00,
2012-11-20 17:41:00,44.4,43.9,29.61,SE,135,0.0,0.0,98,0.00,,,0.00,WUHU21623XXSP,2012-11-21 01:41:00,
2012-11-20 17:46:00,44.4,43.9,29.62,ESE,112,0.0,0.0,98,0.00,,,0.00,WUHU21623XXSP,2012-11-21 01:46:00,
2012-11-20 17:51:00,44.4,43.9,29.62,ESE,112,0.0,0.0,98,0.00,,,0.00,WUHU21623XXSP,2012-11-21 01:51:00,
2012-11-20 17:56:00,44.4,43.9,29.62,SE,135,0.0,0.0,98,0.00,,,0.00,WUHU21623XXSP,2012-11-21 01:56:00,
2012-11-20 18:01:00,44.4,43.9,29.62,ESE,112,0.0,0.0,98,0.00,,,0.00,WUHU21623XXSP,2012-11-21 02:01:00,
2012-11-20 18:06:00,44.4,43.9,29.61,SE,135,0.0,0.0,98,0.00,,,0.00,WUHU21623XXSP,2012-11-21 02:06:00,
2012-11-20 18:11:00,44.4,43.9,29.61,ESE,112,0.0,0.0,98,0.00,,,0.00,WUHU21623XXSP,2012-11-21 02:11:00,
2012-11-20 18:16:00,44.4,43.9,29.61,East,90,0.0,0.0,98,0.00,,,0.00,WUHU21623XXSP,2012-11-21 02:16:00,
2012-11-20 18:21:00,44.4,43.9,29.61,SE,135,0.0,0.0,98,0.00,,,0.00,WUHU21623XXSP,2012-11-21 02:21:00,
2012-11-20 18:26:00,44.4,43.9,29.61,ESE,112,0.0,0.0,98,0.00,,,0.00,WUHU21623XXSP,2012-11-21 02:26:00,
2012-11-20 18:31:00,44.4,43.9,29.61,ENE,67,0.0,0.0,98,0.00,,,0.00,WUHU21623XXSP,2012-11-21 02:31:00,
2012-11-20 18:36:00,44.2,43.4,29.61,ESE,112,0.0,0.0,97,0.00,,,0.00,WUHU21623XXSP,2012-11-21 02:36:00,
2012-11-20 18:41:00,44.2,43.4,29.61,ESE,112,0.0,0.0,97,0.00,,,0.00,WUHU21623XXSP,2012-11-21 02:41:00,
2012-11-20 18:46:00,43.9,43.1,29.62,ESE,112,0.0,0.0,97,0.00,,,0.00,WUHU21623XXSP,2012-11-21 02:46:00,
2012-11-20 18:51:00,43.7,43.1,29.61,East,90,0.0,0.0,97,0.00,,,0.00,WUHU21623XXSP,2012-11-21 02:51:00,
2012-11-20 18:56:00,43.7,42.9,29.62,ESE,112,0.0,0.0,97,0.00,,,0.00,WUHU21623XXSP,2012-11-21 02:56:00,
2012-11-20 19:01:00,43.5,42.7,29.62,ESE,112,0.0,0.0,97,0.00,,,0.00,WUHU21623XXSP,2012-11-21 03:01:00,
2012-11-20 19:06:00,43.5,42.7,29.62,SE,135,0.0,0.0,97,0.00,,,0.00,WUHU21623XXSP,2012-11-21 03:06:00,
2012-11-20 19:11:00,43.5,42.7,29.62,ESE,112,0.0,0.0,97,0.00,,,0.00,WUHU21623XXSP,2012-11-21 03:11:00,
2012-11-20 19:16:00,43.5,42.7,29.61,ESE,112,0.0,0.0,97,0.00,,,0.00,WUHU21623XXSP,2012-11-21 03:16:00,
2012-11-20 19:21:00,43.5,42.7,29.61,SE,135,0.0,0.0,97,0.00,,,0.00,WUHU21623XXSP,2012-11-21 03:21:00,
2012-11-20 19:26:00,43.5,42.7,29.61,SE,135,0.0,0.0,97,0.00,,,0.00,WUHU21623XXSP,2012-11-21 03:26:00,
2012-11-20 19:31:00,43.5,42.7,29.61,ESE,112,0.0,0.0,97,0.00,,,0.00,WUHU21623XXSP,2012-11-21 03:31:00,
2012-11-20 19:36:00,43.5,42.7,29.61,SE,135,0.0,0.0,97,0.00,,,0.00,WUHU21623XXSP,2012-11-21 03:36:00,
2012-11-20 19:41:00,43.7,42.9,29.62,ENE,67,0.0,0.0,97,0.00,,,0.00,WUHU21623XXSP,2012-11-21 03:41:00,
2012-11-20 19:46:00,43.9,43.1,29.62,SE,135,0.0,0.0,97,0.00,,,0.00,WUHU21623XXSP,2012-11-21 03:46:00,
2012-11-20 19:51:00,44.1,43.3,29.62,SSE,157,0.0,0.0,97,0.00,,,0.00,WUHU21623XXSP,2012-11-21 03:51:00,
2012-11-20 19:56:00,44.2,43.4,29.62,SW,225,0.0,0.0,97,0.00,,,0.00,WUHU21623XXSP,2012-11-21 03:56:00,
2012-11-20 20:01:00,44.2,43.4,29.62,ESE,112,0.0,0.0,97,0.00,,,0.00,WUHU21623XXSP,2012-11-21 04:01:00,
2012-11-20 20:06:00,44.2,43.4,29.62,SSW,202,0.0,0.0,97,0.00,,,0.00,WUHU21623XXSP,2012-11-21 04:06:00,
2012-11-20 20:11:00,44.2,43.4,29.63,West,270,0.0,0.0,97,0.00,,,0.00,WUHU21623XXSP,2012-11-21 04:11:00,
2012-11-20 20:16:00,44.1,43.4,29.64,WSW,247,0.0,0.0,97,0.00,,,0.00,WUHU21623XXSP,2012-11-21 04:16:00,
2012-11-20 20:21:00,44.1,43.3,29.63,NE,45,0.0,0.0,97,0.00,,,0.00,WUHU21623XXSP,2012-11-21 04:21:00,
2012-11-20 20:26:00,43.9,43.1,29.63,ENE,67,0.0,0.0,97,0.00,,,0.00,WUHU21623XXSP,2012-11-21 04:26:00,
2012-11-20 20:31:00,43.9,43.1,29.63,ENE,67,0.0,0.0,97,0.00,,,0.00,WUHU21623XXSP,2012-11-21 04:31:00,
2012-11-20 20:36:00,43.9,43.1,29.63,ENE,67,0.0,0.0,97,0.00,,,0.00,WUHU21623XXSP,2012-11-21 04:36:00,
2012-11-20 20:41:00,43.9,43.1,29.63,ENE,67,0.0,0.0,97,0.00,,,0.00,WUHU21623XXSP,2012-11-21 04:41:00,
2012-11-20 20:46:00,43.9,43.1,29.63,ENE,67,0.0,0.0,97,0.00,,,0.00,WUHU21623XXSP,2012-11-21 04:46:00,
2012-11-20 20:51:00,43.7,42.9,29.63,ENE,67,0.0,0.0,97,0.00,,,0.00,WUHU21623XXSP,2012-11-21 04:51:00,
2012-11-20 20:56:00,43.7,42.9,29.63,ENE,67,0.0,0.0,97,0.00,,,0.00,WUHU21623XXSP,2012-11-21 04:56:00,
2012-11-20 21:00:00,43.7,42.9,29.63,ENE,67,0.0,0.0,97,0.00,,,0.00,WUHU21623XXSP,2012-11-21 05:00:00,
2012-11-20 21:02:00,43.7,42.9,29.63,ENE,67,0.0,0.0,97,0.00,,,0.00,WUHU21623XXSP,2012-11-21 05:02:00,
2012-11-20 21:07:00,43.7,42.9,29.63,ENE,67,0.0,0.0,97,0.00,,,0.00,WUHU21623XXSP,2012-11-21 05:07:00,
2012-11-20 21:12:00,43.5,42.7,29.63,ENE,67,0.0,0.0,97,0.00,,,0.00,WUHU21623XXSP,2012-11-21 05:12:00,
2012-11-20 21:17:00,43.7,42.9,29.63,ENE,67,0.0,0.0,97,0.00,,,0.00,WUHU21623XXSP,2012-11-21 05:17:00,
2012-11-20 21:22:00,43.5,43.0,29.63,ENE,67,0.0,0.0,97,0.00,,,0.00,WUHU21623XXSP,2012-11-21 05:22:00,
2012-11-20 21:27:00,43.5,42.7,29.63,SW,225,0.0,0.0,97,0.00,,,0.00,WUHU21623XXSP,2012-11-21 05:27:00,
2012-11-20 21:32:00,43.5,43.0,29.63,SW,225,0.0,0.0,98,0.00,,,0.00,WUHU21623XXSP,2012-11-21 05:32:00,
2012-11-20 21:37:00,43.5,43.0,29.62,SW,225,0.0,0.0,98,0.00,,,0.00,WUHU21623XXSP,2012-11-21 05:37:00,
2012-11-20 21:42:00,43.5,43.0,29.61,SW,225,0.0,0.0,98,0.00,,,0.00,WUHU21623XXSP,2012-11-21 05:42:00,
2012-11-20 21:47:00,43.3,42.8,29.61,SW,225,0.0,0.0,98,0.00,,,0.00,WUHU21623XXSP,2012-11-21 05:47:00,
2012-11-20 21:52:00,43.3,42.8,29.61,SW,225,0.0,0.0,98,0.00,,,0.00,WUHU21623XXSP,2012-11-21 05:52:00,
2012-11-20 21:57:00,43.3,42.8,29.61,SW,225,0.0,0.0,98,0.00,,,0.00,WUHU21623XXSP,2012-11-21 05:57:00,
2012-11-20 22:02:00,43.3,42.8,29.61,SW,225,0.0,0.0,98,0.00,,,0.00,WUHU21623XXSP,2012-11-21 06:02:00,
2012-11-20 22:07:00,43.3,42.8,29.60,SW,225,0.0,0.0,98,0.00,,,0.00,WUHU21623XXSP,2012-11-21 06:07:00,
2012-11-20 22:12:00,43.2,42.8,29.60,SW,225,0.0,0.0,98,0.00,,,0.00,WUHU21623XXSP,2012-11-21 06:12:00,
2012-11-20 22:17:00,43.2,42.6,29.60,SW,225,0.0,0.0,98,0.00,,,0.00,WUHU21623XXSP,2012-11-21 06:17:00,
2012-11-20 22:22:00,43.0,42.4,29.60,SW,225,0.0,0.0,98,0.00,,,0.00,WUHU21623XXSP,2012-11-21 06:22:00,
2012-11-20 22:27:00,43.0,42.4,29.59,SW,225,0.0,0.0,98,0.00,,,0.00,WUHU21623XXSP,2012-11-21 06:27:00,
2012-11-20 22:32:00,43.0,42.4,29.60,SW,225,0.0,0.0,98,0.00,,,0.00,WUHU21623XXSP,2012-11-21 06:32:00,
2012-11-20 22:37:00,43.0,42.4,29.60,SW,225,0.0,0.0,98,0.00,,,0.00,WUHU21623XXSP,2012-11-21 06:37:00,
2012-11-20 22:42:00,42.8,42.3,29.59,SW,225,0.0,0.0,98,0.00,,,0.00,WUHU21623XXSP,2012-11-21 06:42:00,
2012-11-20 22:47:00,42.8,42.3,29.59,SW,225,0.0,0.0,98,0.00,,,0.00,WUHU21623XXSP,2012-11-21 06:47:00,
2012-11-20 22:52:00,42.6,42.1,29.58,SW,225,0.0,0.0,98,0.00,,,0.00,WUHU21623XXSP,2012-11-21 06:52:00,
2012-11-20 22:57:00,42.6,42.1,29.58,SW,225,0.0,0.0,98,0.00,,,0.00,WUHU21623XXSP,2012-11-21 06:57:00,
2012-11-20 23:02:00,42.6,42.1,29.58,SW,225,0.0,0.0,98,0.00,,,0.00,WUHU21623XXSP,2012-11-21 07:02:00,
2012-11-20 23:07:00,42.6,42.1,29.57,SW,225,0.0,0.0,98,0.00,,,0.00,WUHU21623XXSP,2012-11-21 07:07:00,
2012-11-20 23:12:00,42.6,42.1,29.58,SW,225,0.0,0.0,98,0.00,,,0.00,WUHU21623XXSP,2012-11-21 07:12:00,
2012-11-20 23:17:00,42.4,41.9,29.57,SW,225,0.0,0.0,98,0.00,,,0.00,WUHU21623XXSP,2012-11-21 07:17:00,
2012-11-20 23:22:00,42.4,41.9,29.57,SW,225,0.0,0.0,98,0.00,,,0.00,WUHU21623XXSP,2012-11-21 07:22:00,
2012-11-20 23:27:00,42.4,41.9,29.57,ENE,67,0.0,0.0,98,0.00,,,0.00,WUHU21623XXSP,2012-11-21 07:27:00,
2012-11-20 23:32:00,42.4,41.9,29.57,ENE,67,0.0,0.0,98,0.00,,,0.00,WUHU21623XXSP,2012-11-21 07:32:00,
2012-11-20 23:37:00,42.4,41.9,29.56,ENE,67,0.0,0.0,98,0.00,,,0.00,WUHU21623XXSP,2012-11-21 07:37:00,
2012-11-20 23:42:00,42.4,41.9,29.56,ENE,67,0.0,0.0,98,0.00,,,0.00,WUHU21623XXSP,2012-11-21 07:42:00,
2012-11-20 23:47:00,42.4,41.9,29.56,ENE,67,0.0,0.0,98,0.00,,,0.00,WUHU21623XXSP,2012-11-21 07:47:00,
2012-11-20 23:52:00,42.3,41.7,29.55,ENE,67,0.0,0.0,98,0.00,,,0.00,WUHU21623XXSP,2012-11-21 07:52:00,
2012-11-20 23:57:00,42.1,41.5,29.55,ENE,67,0.0,0.0,98,0.00,,,0.00,WUHU21623XXSP,2012-11-21 07:57:00,